#timestamp,LO_Frequency,Hit,StdDev 
1556535615.8,286047003.9,Y
1556535635.7,286047004.3,P
1556535655.5,286047003.2,N
1556535675.4,286047003.2,N
1556535695.2,286047001.9,N
1556535715.0,286047002.3,N
1556535715.9,286047002.3,N
1556535735.8,286047002.4,N
1556535755.6,286047002.2,N
1556535775.4,286046998.9,N
1556535795.3,286046998.9,N
1556535815.1,286046999.4,N
1556535835.9,286046997.0,N
1556535855.7,286046999.6,N
1556535875.5,286046999.3,N
1556535895.4,286046999.5,N
1556535915.2,286046998.8,N
1556535935.0,286046999.6,N
1556535935.9,286046999.6,N
1556535955.8,286046998.4,N
1556535975.6,286046998.8,N
1556535995.5,286047000.9,N
1556536015.3,286046998.7,N
1556536035.1,286047001.0,N
1556536055.9,286046999.4,N
1556536075.7,286046999.1,N
1556536095.5,286046999.0,N
1556536115.4,286047000.9,N
1556536135.2,286047000.9,N
1556536155.1,286047002.5,N
1556536156.0,286047002.5,N
1556536175.8,286047002.4,N
1556536195.6,286047002.6,N
1556536215.5,286047003.7,N
1556536235.3,286047004.0,N
1556536255.1,286047001.9,N
1556536275.9,286047003.1,N
1556536295.7,286047004.4,N
1556536315.6,286047001.7,N
1556536335.4,286047001.3,N
1556536355.2,286047001.5,N
1556536375.1,286047004.0,N
1556536395.3,286047001.8,N
1556536415.1,286047001.5,N
1556536435.9,286047001.7,N
1556536455.7,286047001.7,N
1556536475.6,286047001.6,N
1556536495.4,286047002.0,N
1556536515.2,286047004.4,N
1556536535.1,286047001.7,N
1556536536.0,286047001.7,N
1556536555.8,286047002.2,N
1556536575.6,286047002.4,N
1556536595.5,286047002.1,N
1556536615.3,286047002.5,N
1556536635.2,286046999.7,N
1556536655.9,286046999.9,N
1556536675.7,286047000.2,N
1556536695.6,286047001.1,N
1556536715.4,286047000.2,N
1556536735.3,286047000.5,N
1556536755.1,286046999.9,N
1556536756.0,286046999.9,N
1556536775.8,286047002.1,N
1556536795.7,286047000.6,N
1556536815.5,286047000.1,N
1556536835.3,286047000.3,N
1556536855.2,286047000.0,N
1556536875.0,286047000.6,N
1556536875.9,286047000.6,N
1556536895.8,286046998.5,N
1556536915.6,286046999.9,N
1556536935.4,286046999.8,N
1556536955.3,286047002.6,N
1556536975.1,286047000.2,N
1556536995.8,286047000.1,N
1556537015.7,286047002.8,N
1556537035.5,286047001.9,N
1556537055.3,286047001.3,N
1556537075.2,286047003.5,Y
1556537095.0,286047003.9,P
1556537095.9,286047003.9,N
1556537115.8,286047004.4,P
1556537135.6,286047004.4,Y
1556537155.4,286046999.0,P
1556537175.3,286046997.0,N
1556537195.1,286046999.5,N
1556537215.9,286046998.8,N
1556537235.7,286046998.5,N
1556537255.5,286046998.3,N
1556537275.4,286046999.3,N
1556537295.2,286046999.1,N
1556537315.0,286046998.6,N
1556537335.9,286047002.7,N
1556537355.7,286046999.8,N
1556537375.5,286047000.0,N
1556537395.4,286046998.8,N
1556537415.2,286047000.7,N
1556537435.0,286046998.7,N
1556537435.9,286046998.7,N
1556537455.8,286046998.7,N
1556537475.6,286046999.1,N
1556537495.5,286046999.3,N
1556537515.3,286047000.7,N
1556537535.1,286046998.4,N
1556537555.9,286046999.1,N
1556537575.7,286046996.9,N
1556537595.5,286046999.0,N
1556537615.4,286047000.1,N
1556537635.2,286047001.2,N
1556537655.1,286046998.8,N
1556537656.0,286046998.8,N
1556537675.8,286046998.8,N
1556537695.6,286047001.0,N
1556537715.5,286046999.3,N
1556537735.3,286046999.5,N
1556537755.2,286046996.6,Y
1556537775.9,286046999.3,P
1556537795.7,286046996.9,P
1556537815.6,286046998.5,N
1556537835.4,286047002.7,N
1556537855.2,286047000.2,N
1556537875.1,286047002.8,N
1556537876.0,286047002.8,N
1556537895.8,286047002.0,N
1556537915.7,286047000.4,N
1556537935.5,286047000.0,N
1556537955.3,286046998.5,N
1556537975.2,286047001.2,N
1556537995.0,286047001.2,N
1556537995.9,286047001.2,N
1556538015.7,286047000.4,N
1556538035.6,286047000.2,N
1556538055.4,286047000.6,N
1556538075.3,286047001.1,N
1556538095.1,286046998.5,N
1556538096.0,286046998.5,N
1556538115.8,286047000.9,N
1556538135.7,286047000.6,N
1556538155.5,286046998.1,N
1556538175.3,286047000.5,N
1556538195.2,286047000.1,N
1556538215.0,286047000.2,N
1556538215.9,286047000.2,N
1556538235.8,286047002.3,N
1556538255.6,286047002.8,N
1556538275.4,286046999.8,N
1556538295.3,286047002.5,N
1556538315.1,286047004.3,N
1556538335.8,286047002.3,N
1556538355.7,286047000.3,N
1556538375.5,286047000.6,N
1556538395.4,286047000.5,N
1556538415.2,286046999.9,N
1556538435.0,286046998.1,N
1556538435.9,286046998.1,N
1556538455.8,286047000.3,N
1556538475.6,286047001.1,N
1556538495.4,286047002.8,N
1556538515.3,286047002.1,N
1556538535.1,286046999.9,N
1556538555.9,286047000.0,N
1556538575.7,286046998.5,N
1556538595.5,286047001.0,N
1556538615.4,286046999.3,N
1556538635.2,286046998.8,N
1556538655.1,286046998.2,N
1556538656.0,286046998.2,N
1556538675.8,286046998.3,N
1556538695.6,286046997.0,N
1556538715.5,286046999.1,N
1556538735.3,286046998.4,N
1556538755.2,286047000.9,N
1556538775.9,286046999.5,N
1556538795.7,286046998.8,N
1556538815.6,286046998.1,N
1556538835.4,286046998.1,N
1556538855.2,286046998.2,N
1556538875.1,286047000.8,N
1556538876.0,286047000.8,N
1556538895.8,286046999.8,N
1556538915.7,286047000.0,N
1556538935.5,286047002.3,N
1556538955.3,286047002.6,N
1556538975.2,286047000.5,N
1556538995.9,286046998.2,N
1556539015.7,286047001.2,N
1556539035.6,286046999.2,N
1556539055.4,286046997.7,N
1556539075.2,286046996.9,N
1556539095.1,286046995.5,Y
1556539096.0,286046995.5,P
1556539115.8,286046998.0,N
1556539135.7,286046997.6,N
1556539155.5,286046998.7,N
1556539175.4,286046998.7,N
1556539195.2,286046998.9,N
